[[{"header":{"parameterUnit":"m.s-1","parameterCategory":1,"la1":30.2992,"la2":30.254,"lo1":-89.0895,"lo2":-89.0443,"dy":0.0025,"dx":0.0025,"nx":19,"ny":19,"refTime":"2026-03-30T09:00:00:Z","depth":0,"parameterNumber":2,"parameterNumberName":"U-component_of_WINDS"},"data":[0,0,0,-3.0517,-3.0519,-3.0575,-3.0575,-3.0657,-3.0657,0,0,0,0,0,0,0,0,0,0,0,-3.0507,-3.0508,-3.0517,-3.0519,-3.0575,-3.0575,-3.0656,-3.0657,0,0,0,0,0,0,0,0,0,0,0,-3.0506,-3.0507,-3.0508,-3.0519,-3.0575,-3.0575,-3.0656,-3.061,0,0,0,0,0,0,0,0,0,0,-3.0554,-3.055,-3.0507,-3.0508,-3.0519,-3.0575,-3.0575,-3.0608,-3.0613,-3.0635,0,-3.0657,0,-3.0659,-3.0664,-3.0664,0,0,0,-3.0514,-3.0546,-3.0556,-3.0508,-3.052,-3.0575,-3.0548,-3.0611,-3.0617,-3.0642,-3.0658,-3.0661,-3.066,-3.0664,-3.0665,-3.0808,-3.0809,0,0,-3.0511,-3.052,-3.0552,-3.056,-3.0553,-3.0547,-3.055,-3.0614,-3.0632,-3.0658,-3.0663,-3.0661,-3.0665,-3.0665,-3.0808,-3.0809,0,0,0,-3.0505,-3.0518,-3.0526,-3.0557,-3.0566,-3.0548,-3.0552,-3.0629,-3.0631,-3.0663,-3.0662,-3.0665,-3.0666,-3.0807,-3.0808,-3.0861,0,0,0,-3.0503,-3.0515,-3.0525,-3.0531,-3.0565,-3.0599,-3.0566,-3.0626,-3.0633,-3.0662,-3.0665,-3.0667,-3.0806,-3.0807,-3.0857,-3.0884,0,0,0,-3.0501,-3.0514,-3.0525,-3.0532,-3.0556,-3.0597,-3.0603,-3.0628,-3.0633,-3.0664,-3.0667,-3.0805,-3.0807,-3.0854,-3.0879,-3.0924,0,0,0,-3.0501,-3.0571,-3.0526,-3.0604,-3.0556,-3.063,-3.0602,-3.0657,-3.069,-3.0666,-3.0806,-3.0808,-3.0853,-3.0875,-3.092,-3.0963,-3.0981,0,0,-3.0595,-3.0583,-3.0628,-3.0589,-3.0673,-3.0621,-3.0713,-3.0734,-3.0728,-3.0782,-3.0785,-3.0858,-3.0878,-3.0923,-3.1085,-3.11,0,0,0,-3.0661,-3.0693,-3.0713,-3.0745,-3.0764,-3.0781,-3.0787,-3.0795,-3.084,-3.0758,-3.0887,-3.0899,-3.0925,-3.0944,-3.0957,-3.0978,-3.0818,-3.0818,-3.0817,-3.0806,-3.0795,-3.0868,-3.0864,-3.0896,-3.0901,-3.0925,-3.0936,-3.0917,-3.0947,-3.0963,-3.1063,-3.1086,-3.1096,-3.1118,-3.0985,-3.0985,-3.0985,-3.0986,-3.0941,-3.0984,-3.0956,-3.1017,-3.1005,-3.1056,-3.1064,-3.1048,-3.1093,-3.105,-3.1072,-3.1026,-3.1112,-3.1131,-3.099,-3.0989,-3.0988,-3.0988,-3.0988,-3.1034,-3.1052,-3.1061,-3.1106,-3.1141,-3.1135,-3.1179,-3.1167,-3.1155,-3.1177,-3.1192,-3.1191,-3.1187,-3.1185,-3.1186,-3.1186,-3.1186,-3.1187,-3.1187,-3.1126,-3.1134,-3.1173,-3.1198,-3.1217,-3.1239,-3.1246,-3.1264,-3.128,-3.1267,-3.1267,-3.1243,-3.1123,-3.1093,-3.1192,-3.1191,-3.119,-3.119,-3.119,-3.1265,-3.1232,-3.1292,-3.1311,-3.1339,-3.1374,-3.1358,-3.1395,-3.1408,-3.143,-3.1402,-3.1315,-3.1302,-3.1292,-3.1266,-3.1405,-3.1405,-3.1405,-3.1405,-3.1343,-3.1335,-3.1394,-3.1424,-3.1452,-3.1444,-3.1511,-3.1517,-3.1517,-3.1524,-3.1503,-3.1468,-3.1458,-3.1451,-3.1437,-3.1413,-3.1585,-3.1586,-3.1586,-3.1427,-3.1421,-3.1482,-3.1482,-3.1503,-3.152,-3.1583,-3.1619,-3.1612,-3.1593,-3.1529,-3.1521,-3.1466,-3.1448,-3.1426,-3.1405,-3.1361,0,0]},{"header":{"parameterUnit":"m.s-1","parameterCategory":1,"la1":30.2992,"la2":30.254,"lo1":-89.0895,"lo2":-89.0443,"dy":0.0025,"dx":0.0025,"nx":19,"ny":19,"refTime":"2026-03-30T09:00:00:Z","depth":0,"parameterNumber":3,"parameterNumberName":"V-component_of_WINDS"},"data":[0,0,0,1.7543,1.7543,1.7541,1.754,1.7547,1.7547,0,0,0,0,0,0,0,0,0,0,0,1.755,1.755,1.7543,1.7543,1.7541,1.754,1.7547,1.7547,0,0,0,0,0,0,0,0,0,0,0,1.755,1.755,1.755,1.7543,1.7541,1.754,1.7547,1.7546,0,0,0,0,0,0,0,0,0,0,1.7547,1.7558,1.755,1.755,1.7543,1.7541,1.754,1.7545,1.7546,1.7553,0,1.756,0,1.7554,1.7548,1.7548,0,0,0,1.7539,1.7558,1.7552,1.755,1.7543,1.7541,1.7541,1.7545,1.7546,1.7553,1.756,1.756,1.7554,1.7548,1.7549,1.7602,1.7603,0,0,1.7539,1.7552,1.7552,1.7552,1.7553,1.7541,1.7541,1.7546,1.7554,1.756,1.756,1.7554,1.7549,1.7549,1.7602,1.7602,0,0,0,1.7543,1.7553,1.7546,1.7552,1.7551,1.7541,1.7541,1.7554,1.7551,1.756,1.7554,1.7549,1.7549,1.7601,1.7602,1.7637,0,0,0,1.7542,1.7555,1.7547,1.7555,1.7551,1.7552,1.7549,1.755,1.755,1.7554,1.7549,1.7549,1.7601,1.7602,1.7635,1.7651,0,0,0,1.7548,1.7555,1.7557,1.7555,1.7555,1.7552,1.7549,1.755,1.7547,1.7548,1.7549,1.76,1.7601,1.7633,1.7648,1.7669,0,0,0,1.7558,1.7588,1.7557,1.7589,1.7555,1.7574,1.7549,1.7562,1.7567,1.7549,1.7601,1.7602,1.7632,1.7646,1.7668,1.769,1.77,0,0,1.7603,1.7594,1.7611,1.7584,1.7611,1.7573,1.7606,1.7598,1.7586,1.7598,1.7599,1.7636,1.7648,1.7669,1.7754,1.7762,0,0,0,1.763,1.7642,1.7647,1.7652,1.7648,1.7645,1.7631,1.7628,1.7637,1.7595,1.7648,1.7655,1.7667,1.7677,1.7685,1.7694,1.7607,1.7607,1.7607,1.7712,1.7696,1.7723,1.7707,1.7713,1.7698,1.7702,1.7696,1.7677,1.769,1.7694,1.7747,1.7759,1.7765,1.7775,1.7704,1.7704,1.7704,1.7704,1.7777,1.7792,1.7767,1.7785,1.7768,1.7783,1.7771,1.7757,1.7769,1.7743,1.7753,1.7726,1.7774,1.7782,1.7707,1.7706,1.7706,1.7706,1.7705,1.7829,1.7834,1.783,1.7837,1.7845,1.7827,1.7839,1.7823,1.7808,1.7817,1.7819,1.7818,1.7816,1.7819,1.7819,1.782,1.782,1.782,1.782,1.7885,1.788,1.7892,1.789,1.7892,1.7892,1.7879,1.788,1.7878,1.7865,1.7865,1.7846,1.7782,1.7767,1.7823,1.7822,1.7822,1.7822,1.7821,1.7957,1.7938,1.7958,1.796,1.7956,1.7965,1.7944,1.7949,1.7947,1.7954,1.7933,1.7889,1.7878,1.7872,1.7859,1.7936,1.7936,1.7936,1.7936,1.8001,1.7994,1.8011,1.8015,1.8018,1.8001,1.8024,1.8014,1.8001,1.8,1.7986,1.7968,1.7962,1.7955,1.7947,1.7935,1.8029,1.8029,1.8029,1.8045,1.8038,1.806,1.8047,1.8043,1.8041,1.8062,1.8068,1.805,1.8033,1.7998,1.7994,1.7964,1.7955,1.7937,1.7926,1.7903,0,0]}]]